Shawnee, OK

7:34 PM CST on February 25, 2017 (GMT -0600)
Shawnee Municipal

Weather History for KSNL - June, 2013

Change the Weather History Date:

Thursday, June 20, 2013

  Actual Average (KTIK) Record (KTIK)
Temperature  
Mean Temperature 86 °F -  
Max Temperature 96 °F 82 °F 96 °F (1998)
Min Temperature 77 °F 65 °F 64 °F (2004)
Cooling Degree Days 22    
Growing Degree Days 36 (Base 50)    
Moisture  
Dew Point 75 °F    
Average Humidity 75    
Maximum Humidity 100    
Minimum Humidity 55    
Precipitation  
Precipitation 0.00 in - - ()
Sea Level Pressure  
Sea Level Pressure 29.98 in    
Wind  
Wind Speed 12 mph (SSE)    
Max Wind Speed 21 mph    
Max Gust Speed 29 mph    
Visibility 10 miles    
Events      
Averages and records for this station are not official NWS values.
T = Trace of Precipitation, MM = Missing Value Source: NWS Daily Summary

Daily Weather History Graph

Daily Weather History Graph

Search for Another Location

Airport or City:

Trip Planner

Search our weather history database for the weather conditions in past years. The results will help you decide how hot, cold, wet, or windy it might be!

Date:

Astronomy

Jun. 20, 2013 Rise Set
Actual Time 6:13 AM CDT 8:45 PM CDT
Civil Twilight 5:43 AM CDT 9:15 PM CDT
Nautical Twilight 5:06 AM CDT 9:52 PM CDT
Astronomical Twilight 4:24 AM CDT 10:33 PM CDT
Moon 5:53 PM CDT (6/20) 3:35 AM CDT (6/20)
Length of Visible Light 15h 32m
Length of Day
14h 32m
Waxing Gibbous, 89% of the Moon is Illuminated
Jun 20
Waxing Gibbous
Jun 23
Full
Jun 29
Last Quarter
Jul 8
New
Jul 15
First Quarter

Hourly Weather History & Observations

Time (CDT) Temp. Heat Index Dew Point Humidity Pressure Visibility Wind Dir Wind Speed Gust Speed Precip Events Conditions
12:15 AM 78.8 °F - 75.2 °F 89% 29.99 in 10.0 mi SSE 11.5 mph 16.1 mph N/A   Clear
12:35 AM 78.8 °F - 75.2 °F 89% 29.99 in 10.0 mi SSE 10.4 mph - N/A   Clear
12:55 AM 77.0 °F - 73.4 °F 89% 29.98 in 10.0 mi SSE 9.2 mph - N/A   Clear
1:15 AM 77.0 °F - 73.4 °F 89% 29.98 in 10.0 mi SSE 10.4 mph - N/A   Clear
1:35 AM 77.0 °F - 73.4 °F 89% 29.98 in 10.0 mi SSE 10.4 mph - N/A   Clear
1:55 AM 77.0 °F - 73.4 °F 89% 29.98 in 10.0 mi SSE 10.4 mph 18.4 mph N/A   Clear
2:15 AM 77.0 °F - 73.4 °F 89% 29.97 in 10.0 mi SSE 13.8 mph 19.6 mph N/A   Clear
2:35 AM 77.0 °F - 73.4 °F 89% 29.97 in 10.0 mi SSE 11.5 mph - N/A   Clear
2:55 AM 77.0 °F - 73.4 °F 89% 29.97 in 10.0 mi SE 10.4 mph - N/A   Clear
3:15 AM 77.0 °F - 73.4 °F 89% 29.96 in 10.0 mi SE 9.2 mph 19.6 mph N/A   Clear
3:35 AM 77.0 °F - 73.4 °F 89% 29.96 in 10.0 mi SE 10.4 mph - N/A   Clear
3:55 AM 77.0 °F - 73.4 °F 89% 29.96 in 10.0 mi SSE 12.7 mph - N/A   Clear
4:15 AM 77.0 °F - 73.4 °F 89% 29.96 in 10.0 mi SE 11.5 mph - N/A   Clear
4:35 AM 77.0 °F - 73.4 °F 89% 29.96 in 10.0 mi SSE 10.4 mph 17.3 mph N/A   Clear
4:55 AM 77.0 °F - 73.4 °F 89% 29.96 in 10.0 mi SSE 11.5 mph - N/A   Clear
5:15 AM 77.0 °F - 73.4 °F 89% 29.97 in 10.0 mi SSE 11.5 mph 17.3 mph N/A   Clear
5:35 AM 77.0 °F - 73.4 °F 89% 29.97 in 10.0 mi SSE 12.7 mph 17.3 mph N/A   Clear
6:55 AM 77.0 °F - 75.2 °F 94% 29.99 in 10.0 mi SSE 12.7 mph 17.3 mph N/A   Clear
7:15 AM 77.0 °F - 75.2 °F 94% 30.00 in 10.0 mi SSE 12.7 mph 19.6 mph N/A   Clear
7:35 AM 77.0 °F - 75.2 °F 94% 30.00 in 10.0 mi SSE 13.8 mph - N/A   Clear
7:55 AM 77.0 °F - 77.0 °F 100% 30.00 in 10.0 mi SSE 11.5 mph 16.1 mph N/A   Clear
8:55 AM 80.6 °F 88.1 °F 78.8 °F 94% 30.02 in 10.0 mi South 12.7 mph 16.1 mph N/A   Scattered Clouds
9:15 AM 80.6 °F 87.1 °F 77.0 °F 89% 30.03 in 10.0 mi South 10.4 mph - N/A   Clear
10:35 AM 86.0 °F 99.3 °F 78.8 °F 79% 30.03 in 10.0 mi South 12.7 mph - N/A   Clear
10:55 AM 87.8 °F 102.5 °F 78.8 °F 75% 30.03 in 10.0 mi South 11.5 mph 18.4 mph N/A   Clear
12:15 PM 91.4 °F 107.2 °F 78.8 °F 66% 30.02 in 10.0 mi South 16.1 mph 19.6 mph N/A   Clear
12:35 PM 91.4 °F 105.1 °F 77.0 °F 63% 30.02 in 10.0 mi South 13.8 mph 19.6 mph N/A   Clear
12:55 PM 91.4 °F 105.1 °F 77.0 °F 63% 30.01 in 10.0 mi South 12.7 mph - N/A   Clear
1:15 PM 91.4 °F 105.1 °F 77.0 °F 63% 30.01 in 10.0 mi South 15.0 mph 21.9 mph N/A   Clear
1:35 PM 95.0 °F 112.2 °F 78.8 °F 59% 30.01 in 10.0 mi South 15.0 mph 19.6 mph N/A   Clear
2:15 PM 95.0 °F 109.7 °F 77.0 °F 56% 30.00 in 10.0 mi South 16.1 mph 21.9 mph N/A   Scattered Clouds
2:35 PM 95.0 °F 109.7 °F 77.0 °F 56% 29.99 in 10.0 mi South 16.1 mph 24.2 mph N/A   Scattered Clouds
2:55 PM 95.0 °F 109.7 °F 77.0 °F 56% 29.99 in 10.0 mi South 19.6 mph 24.2 mph N/A   Scattered Clouds
3:35 PM 95.0 °F 109.7 °F 77.0 °F 56% 29.99 in 10.0 mi South 17.3 mph 21.9 mph N/A   Clear
3:55 PM 96.8 °F 114.8 °F 78.8 °F 56% 29.99 in 10.0 mi South 15.0 mph 21.9 mph N/A   Scattered Clouds
4:15 PM 95.0 °F 109.7 °F 77.0 °F 56% 29.98 in 10.0 mi South 16.1 mph 25.3 mph N/A   Clear
4:55 PM 96.8 °F 114.8 °F 78.8 °F 56% 29.97 in 10.0 mi South 16.1 mph 23.0 mph N/A   Scattered Clouds
5:55 PM 91.4 °F 102.5 °F 75.2 °F 59% 29.94 in 10.0 mi South 16.1 mph 24.2 mph N/A   Clear
6:15 PM 91.4 °F 100.1 °F 73.4 °F 55% 29.94 in 10.0 mi South 20.7 mph 28.8 mph N/A   Clear
6:35 PM 91.4 °F 102.5 °F 75.2 °F 59% 29.94 in 10.0 mi SSE 18.4 mph 26.5 mph N/A   Clear
6:55 PM 91.4 °F 100.1 °F 73.4 °F 55% 29.94 in 10.0 mi SSE 13.8 mph 25.3 mph N/A   Clear
7:15 PM 91.4 °F 100.1 °F 73.4 °F 55% 29.94 in 10.0 mi SSE 12.7 mph 21.9 mph N/A   Clear
7:35 PM 91.4 °F 100.1 °F 73.4 °F 55% 29.94 in 10.0 mi SSE 17.3 mph - N/A   Clear
7:55 PM 91.4 °F 100.1 °F 73.4 °F 55% 29.94 in 10.0 mi South 16.1 mph 24.2 mph N/A   Clear
8:15 PM 87.8 °F 95.6 °F 73.4 °F 62% 29.94 in 10.0 mi South 13.8 mph - N/A   Clear
8:35 PM 87.8 °F 95.6 °F 73.4 °F 62% 29.96 in 10.0 mi SSE 12.7 mph 17.3 mph N/A   Clear
8:55 PM 86.0 °F 91.8 °F 71.6 °F 62% 29.97 in 10.0 mi SSE 10.4 mph - N/A   Clear
9:15 PM 86.0 °F 91.8 °F 71.6 °F 62% 29.97 in 10.0 mi South 11.5 mph 18.4 mph N/A   Clear
9:55 PM 82.4 °F 87.2 °F 71.6 °F 70% 29.99 in 10.0 mi SSE 9.2 mph - N/A   Clear
10:15 PM 82.4 °F 87.2 °F 71.6 °F 70% 30.00 in 10.0 mi SSE 8.1 mph - N/A   Clear
10:35 PM 82.4 °F 87.2 °F 71.6 °F 70% 30.01 in 10.0 mi SSE 6.9 mph - N/A   Clear
10:55 PM 80.6 °F 84.6 °F 71.6 °F 74% 30.01 in 10.0 mi SSE 9.2 mph - N/A   Clear
11:15 PM 80.6 °F 85.4 °F 73.4 °F 79% 30.01 in 10.0 mi SSE 11.5 mph - N/A   Clear
11:35 PM 80.6 °F 85.4 °F 73.4 °F 79% 30.01 in 10.0 mi SSE 15.0 mph - N/A   Clear
11:55 PM 80.6 °F 85.4 °F 73.4 °F 79% 30.01 in 10.0 mi SSE 11.5 mph - N/A   Clear